EW8328 Weather Reports


time (UTC)temp
C
wind
direction
speed
KPH
gust
KPH
rain 1hr
cm
rain 24hr
cm
rain mn
cm
humidity
%
barometer
mb
20260503020851 10 23 1.6 8.0 0.08 0.84 0.51 94 1008.7
20260503020351 10 9 3.2 9.7 0.10 0.84 0.51 94 1008.8
20260503015851 10 342 1.6 4.8 0.10 0.81 0.48 94 1008.8
20260503014851 10 343 3.2 4.8 0.13 0.81 0.48 94 1008.9
20260503013852 10 75 3.2 4.8 0.15 0.79 0.46 93 1009.0
20260503013351 10 14 4.8 12.9 0.15 0.79 0.46 93 1009.1
20260503012851 10 10 3.2 9.7 0.15 0.79 0.46 93 1009.1
20260503012351 10 22 3.2 9.7 0.18 0.79 0.46 93 1009.1
20260503011851 10 0 4.8 9.7 0.18 0.79 0.43 93 1009.2
20260503011351 10 355 3.2 4.8 0.18 0.76 0.43 93 1009.3
20260503010851 10 0 3.2 4.8 0.18 0.76 0.43 93 1009.3
20260503010352 10 24 3.2 11.3 0.18 0.74 0.41 93 1009.4
20260503005851 10 26 0.0 3.2 0.18 0.71 0.38 93 1009.5
20260503003851 10 14 3.2 8.0 0.18 0.66 0.33 93 1009.6
20260503003350 10 12 1.6 4.8 0.15 0.64 0.30 93 1009.7
20260503002852 10 358 3.2 20.9 0.18 0.64 0.30 93 1009.7
20260503002351 10 11 1.6 4.8 0.18 0.61 0.28 93 1009.7
20260503001851 10 354 4.8 9.7 0.18 0.61 0.25 93 1009.8
20260503001351 10 341 3.2 4.8 0.18 0.58 0.23 92 1009.9
20260503000351 10 8 1.6 8.0 0.20 0.56 0.23 92 1010.0
20260502235851 10 327 4.8 11.3 0.20 0.53 0.20 92 1010.0
20260502235352 10 2 3.2 11.3 0.20 0.51 0.18 92 1010.1
20260502234851 10 3 3.2 9.7 0.20 0.51 0.15 91 1010.1
20260502234352 10 11 3.2 9.7 0.20 0.51 0.15 91 1010.1
20260502233852 10 5 4.8 9.7 0.20 0.48 0.15 91 1010.1
20260502233351 11 5 3.2 11.3 0.20 0.48 0.15 91 1010.2
20260502232851 11 2 3.2 11.3 0.20 0.46 0.13 91 1010.3
20260502232351 11 14 3.2 9.7 0.18 0.43 0.10 91 1010.3
20260502231851 11 20 3.2 11.3 0.18 0.43 0.08 90 1010.4
20260502231350 11 19 4.8 11.3 0.15 0.41 0.05 90 1010.4
20260502230934 11 334 3.2 9.7 0.15 0.38 0.05 89 1010.5
20260502230351 11 352 1.6 4.8 0.15 0.36 0.03 89 1010.7
20260502225852 11 35 1.6 3.2 0.15 0.33 0.33 89 1010.7
20260502225352 11 338 1.6 4.8 0.15 0.33 0.33 89 1010.7
20260502224851 11 4 1.6 8.0 0.15 0.30 0.30 89 1010.7
20260502224351 11 9 3.2 8.0 0.15 0.30 0.30 88 1010.6
20260502222852 11 3 1.6 4.8 0.18 0.25 0.25 88 1010.6
20260502221851 11 24 1.6 4.8 0.18 0.23 0.23 88 1010.7
20260502221351 11 29 0.0 3.2 0.20 0.23 0.23 88 1010.8
20260502220852 11 74 0.0 3.2 0.18 0.23 0.23 88 1010.8
20260502220351 11 49 1.6 3.2 0.18 0.20 0.20 87 1010.9
20260502215852 11 53 1.6 3.2 0.18 0.20 0.20 88 1010.9
20260502215351 11 348 1.6 4.8 0.15 0.18 0.18 88 1011.0
20260502214352 11 81 0.0 4.8 0.15 0.15 0.15 88 1011.2
20260502213851 11 90 1.6 3.2 0.13 0.13 0.13 88 1011.2
20260502213351 11 108 1.6 4.8 0.10 0.10 0.10 87 1011.2
20260502212351 12 100 1.6 3.2 0.05 0.05 0.05 87 1011.2
20260502211851 12 100 1.6 4.8 0.05 0.05 0.05 86 1011.3
20260502211350 12 146 1.6 4.8 0.05 0.05 0.05 84 1011.3
20260502210851 12 331 1.6 8.0 0.05 0.05 0.05 84 1011.2
20260502210352 12 322 1.6 4.8 0.03 0.03 0.03 83 1011.3
20260502205851 12 338 1.6 4.8 0.03 0.03 0.03 82 1011.4
20260502205351 12 316 1.6 4.8 0.03 0.03 0.03 81 1011.4
20260502204851 12 342 1.6 3.2 0.03 0.03 0.03 80 1011.4
20260502204351 12 342 0.0 1.6 0.00 0.00 0.00 80 1011.5
20260502203852 12 342 1.6 3.2 0.00 0.00 0.00 79 1011.6
20260502203351 12 313 0.0 1.6 0.00 0.00 0.00 79 1011.6
20260502202851 12 313 0.0 3.2 0.00 0.00 0.00 78 1011.6
20260502201851 13 313 0.0 3.2 0.00 0.00 0.00 75 1011.6
20260502201352 13 313 1.6 3.2 0.00 0.00 0.00 75 1011.6
20260502200851 13 313 0.0 3.2 0.00 0.00 0.00 74 1011.6
20260502195851 13 313 0.0 3.2 0.00 0.00 0.00 72 1011.5
20260502195351 13 313 0.0 3.2 0.00 0.00 0.00 72 1011.5
20260502194852 13 313 0.0 1.6 0.00 0.00 0.00 72 1011.5
20260502194351 13 313 1.6 3.2 0.00 0.00 0.00 72 1011.4
20260502193851 13 313 0.0 3.2 0.00 0.00 0.00 71 1011.4
20260502193351 13 313 1.6 3.2 0.00 0.00 0.00 71 1011.4
20260502192851 13 313 0.0 3.2 0.00 0.00 0.00 71 1011.4
20260502192352 13 313 0.0 3.2 0.00 0.00 0.00 72 1011.3
20260502191851 13 313 1.6 3.2 0.00 0.00 0.00 72 1011.3
20260502191351 13 343 1.6 4.8 0.00 0.00 0.00 72 1011.3
20260502190852 13 321 1.6 4.8 0.00 0.00 0.00 73 1011.3
20260502190351 13 351 3.2 4.8 0.00 0.00 0.00 73 1011.3
20260502185851 13 331 1.6 4.8 0.00 0.00 0.00 73 1011.4
20260502185351 13 316 1.6 4.8 0.00 0.00 0.00 73 1011.4
20260502184851 13 333 1.6 3.2 0.00 0.00 0.00 72 1011.4
20260502184351 13 333 1.6 3.2 0.00 0.00 0.00 71 1011.4
20260502183851 14 333 0.0 1.6 0.00 0.00 0.00 72 1011.5
20260502183351 14 326 1.6 4.8 0.00 0.00 0.00 71 1011.5
20260502182851 14 358 1.6 4.8 0.00 0.00 0.00 70 1011.6
20260502182350 14 344 0.0 4.8 0.00 0.00 0.00 70 1011.6
20260502181851 14 313 0.0 0.0 0.00 0.00 0.00 71 1011.7
20260502181350 14 313 0.0 1.6 0.00 0.00 0.00 70 1011.7
20260502180851 14 313 0.0 3.2 0.00 0.00 0.00 71 1011.7
20260502180351 14 313 0.0 3.2 0.00 0.00 0.00 71 1011.8
20260502170351 15 304 3.2 4.8 0.00 0.00 0.00 67 1011.9
20260502163851 16 291 1.6 4.8 0.00 0.00 0.00 66 1012.2
20260502163351 16 316 1.6 3.2 0.00 0.00 0.00 65 1012.3
20260502162851 16 290 1.6 3.2 0.00 0.00 0.00 64 1012.4
20260502162351 16 314 1.6 4.8 0.00 0.00 0.00 64 1012.4
20260502161851 16 285 1.6 4.8 0.00 0.00 0.00 64 1012.3
20260502161350 16 311 3.2 4.8 0.00 0.00 0.00 62 1012.4
20260502160351 16 292 1.6 8.0 0.00 0.00 0.00 64 1012.6
20260502151851 16 319 1.6 4.8 0.00 0.00 0.00 63 1012.9
20260502151351 16 286 3.2 4.8 0.00 0.00 0.00 63 1013.1
20260502150851 16 351 1.6 4.8 0.00 0.00 0.00 63 1013.1
20260502150350 16 323 3.2 4.8 0.00 0.00 0.00 63 1013.3
20260502130350 15 283 4.8 14.5 0.00 0.00 0.00 67 1014.2
20260502123351 14 302 3.2 8.0 0.00 0.00 0.00 73 1014.6
20260502122851 13 263 4.8 9.7 0.00 0.00 0.00 74 1014.6
20260502122351 13 248 4.8 9.7 0.00 0.00 0.00 74 1014.9
20260502121851 13 309 3.2 9.7 0.00 0.00 0.00 77 1015.0
20260502121350 12 290 1.6 4.8 0.00 0.00 0.00 78 1015.0
20260502120850 12 289 3.2 11.3 0.00 0.00 0.00 77 1015.3
20260502115850 12 260 4.8 12.9 0.00 0.00 0.00 76 1015.3
20260502115350 12 293 3.2 11.3 0.00 0.00 0.00 76 1015.4
20260502114851 12 259 4.8 11.3 0.00 0.00 0.00 77 1015.4
20260502113851 12 238 3.2 11.3 0.00 0.00 0.00 74 1015.3
20260502113350 12 222 8.0 12.9 0.00 0.00 0.00 75 1015.2
20260502112850 12 218 8.0 12.9 0.00 0.00 0.00 77 1015.2
20260502112350 12 240 4.8 9.7 0.00 0.00 0.00 78 1015.1
20260502111851 12 265 4.8 9.7 0.00 0.00 0.00 79 1015.1
20260502111351 12 245 4.8 9.7 0.00 0.00 0.00 79 1015.1
20260502110351 12 260 4.8 12.9 0.00 0.00 0.00 81 1015.1
20260502105851 12 251 4.8 9.7 0.00 0.00 0.00 80 1015.0
20260502105350 12 276 4.8 9.7 0.00 0.00 0.00 81 1015.2
20260502104850 12 254 4.8 11.3 0.00 0.00 0.00 82 1015.2
20260502104350 12 294 1.6 4.8 0.00 0.00 0.00 83 1015.3
20260502103851 12 248 3.2 8.0 0.00 0.00 0.00 83 1015.3
20260502103351 12 268 3.2 8.0 0.00 0.00 0.00 83 1015.3
20260502102851 11 250 4.8 11.3 0.00 0.00 0.00 84 1015.4
20260502102351 11 248 3.2 8.0 0.00 0.00 0.00 84 1015.5
20260502101850 11 260 4.8 12.9 0.00 0.00 0.00 83 1015.6
20260502101350 12 256 3.2 9.7 0.00 0.00 0.00 83 1015.4
20260502100851 11 304 3.2 4.8 0.00 0.00 0.00 83 1015.4
20260502091351 11 274 3.2 8.0 0.00 0.00 0.00 85 1015.7
20260502090850 11 295 3.2 4.8 0.00 0.00 0.00 85 1015.8
20260502090350 11 288 3.2 8.0 0.00 0.00 0.00 86 1015.8
20260502071350 10 273 1.6 4.8 0.00 0.00 0.00 88 1015.7
20260502070851 10 256 3.2 4.8 0.00 0.00 0.00 88 1015.7
20260502070350 10 270 1.6 4.8 0.00 0.00 0.00 88 1015.7
20260502065850 10 244 1.6 4.8 0.00 0.00 0.00 88 1015.7
20260502065350 10 261 1.6 3.2 0.00 0.00 0.00 88 1015.7
20260502063850 10 237 3.2 8.0 0.00 0.00 0.00 88 1015.7
20260502063350 10 254 3.2 4.8 0.00 0.00 0.00 89 1015.6
20260502062350 10 251 1.6 9.7 0.00 0.00 0.00 89 1015.5
20260502061850 10 267 3.2 4.8 0.00 0.00 0.00 89 1015.5
20260502061351 10 251 4.8 8.0 0.00 0.00 0.00 89 1015.6
20260502060850 10 264 3.2 9.7 0.00 0.00 0.00 89 1015.6
20260502060350 10 255 4.8 11.3 0.00 0.00 0.00 89 1015.6
20260502055851 10 263 3.2 4.8 0.00 0.00 0.00 89 1015.6
20260502055350 10 274 3.2 11.3 0.00 0.00 0.00 88 1015.6
20260502054350 10 273 3.2 4.8 0.00 0.00 0.00 88 1015.6
20260502053851 10 264 3.2 4.8 0.00 0.00 0.00 88 1015.6
20260502052850 10 263 3.2 9.7 0.00 0.00 0.00 88 1015.6
20260502051850 10 247 4.8 12.9 0.00 0.00 0.00 88 1015.6
20260502051350 10 260 6.4 14.5 0.00 0.00 0.00 88 1015.6
20260502050850 10 255 6.4 19.3 0.00 0.00 0.00 88 1015.6
20260502045851 10 273 8.0 14.5 0.00 0.00 0.00 88 1015.6
20260502044850 10 227 3.2 8.0 0.00 0.00 0.00 88 1015.6
20260502044350 10 277 1.6 4.8 0.00 0.00 0.00 88 1015.6
20260502043850 10 229 1.6 4.8 0.00 0.00 0.00 88 1015.6
20260502043350 10 207 1.6 3.2 0.00 0.00 0.00 88 1015.5
20260502042850 10 256 1.6 3.2 0.00 0.00 0.00 88 1015.6
20260502042350 10 263 1.6 4.8 0.00 0.00 0.00 88 1015.6
20260502041851 10 226 1.6 4.8 0.00 0.00 0.00 88 1015.6
20260502041350 10 264 3.2 4.8 0.00 0.00 0.00 88 1015.7
20260502040850 10 246 3.2 8.0 0.00 0.00 0.00 88 1015.6
20260502040350 10 265 3.2 9.7 0.00 0.00 0.00 88 1015.7
20260502035850 10 289 1.6 4.8 0.00 0.00 0.00 88 1015.7
20260502035350 10 284 1.6 4.8 0.00 0.00 0.00 88 1015.7
20260502034850 10 294 0.0 4.8 0.00 0.00 0.00 88 1015.7
20260502034350 10 268 1.6 4.8 0.00 0.00 0.00 89 1015.7
20260502033850 10 260 3.2 4.8 0.00 0.00 0.00 89 1015.7
20260502033350 10 302 1.6 4.8 0.00 0.00 0.00 89 1015.7
20260502032850 10 286 3.2 4.8 0.00 0.00 0.00 89 1015.7
20260502032350 10 230 1.6 4.8 0.00 0.00 0.00 90 1015.6
20260502031350 9 252 3.2 4.8 0.00 0.00 0.00 90 1015.6
20260502030350 9 272 1.6 4.8 0.00 0.00 0.00 90 1015.6
20260502025850 9 272 1.6 4.8 0.00 0.00 0.00 90 1015.6
20260502025350 9 269 1.6 4.8 0.00 0.00 0.00 90 1015.5
20260502024850 9 298 3.2 4.8 0.00 0.00 0.00 90 1015.5
20260502024349 9 291 1.6 4.8 0.00 0.00 0.00 90 1015.6
20260502023350 9 268 1.6 4.8 0.00 0.00 0.00 90 1015.6
20260502022850 9 285 3.2 4.8 0.00 0.00 0.00 90 1015.6
20260502022351 9 275 1.6 4.8 0.00 0.00 0.00 90 1015.7
20260502021850 9 279 1.6 8.0 0.00 0.00 0.00 91 1015.8
20260502021350 9 289 3.2 4.8 0.00 0.00 0.00 91 1015.8